Weather in Mary

Turkmenistan     37°35′28″N   61°51′02″E
temp.,
°C
wind,
m/s
gust,
m/s
humid.,
%
clouds,
%
prec.,
mm/h
press.,
hPa
HPBL,
m
12 august, fri
fri1223:00+25n58240 0.0 101090
02:00+23n59270 0.0 1009122
05:00+22n59270 0.0 1009108
08:00+26nne58250 0.0 1010283
11:00+33nne78170 0.0 10102238
14:00+36n88140 0.0 10072523
17:00+36n99110 0.0 10062610
20:00+31n69170 0.0 1006110
13 august, sat
sat1323:00+27n59210 0.0 1007101
02:00+25n58240 0.0 100794
05:00+23nne56280 0.0 100878
08:00+28nne610220 0.0 1009331
11:00+35n89140 0.0 10082325
14:00+37n88110 0.0 10062677
17:00+37n89110 0.0 10042772
20:00+31n56160 0.0 100456
14 august, sun
sun1423:00+27nnw56200 0.0 100554
02:00+26nnw56220 0.0 100462
05:00+25n56250 0.0 100463
08:00+28nne48220 0.0 1006261
11:00+36nne67140 0.0 10052471
14:00+38n77110 0.0 10042928
17:00+38n77100 0.0 10022989
20:00+32nnw55150 0.0 100336
15 august, mon
mon1523:00+28n55170 0.0 100450
02:00+27n45210 0.0 100451
05:00+25n56250 0.0 100473
08:00+29nne46200 0.0 1006190
11:00+37n45130 0.0 10062850
14:00+39nnw66100 0.0 10043119
17:00+39n7790 0.0 10033213
20:00+33n57130 0.0 100466
16 august, tue
tue1623:00+30nnw59170 0.0 100598
02:00+28nnw58190 0.0 100594
05:00+26n44230 0.0 100638
08:00+30nne47200 0.0 1007216
11:00+37n67130 0.0 10072809
14:00+40n88110 0.0 10053135
17:00+39n99110 0.0 10043109
20:00+33n610150 0.0 1006132